When you browse on this site, cookies collect data to enhance your experience and personalize the content and advertising you see.
Visit our Privacy Policy to learn more. By continuing to use the site, you agree to this use of cookies and data.
  • En España
  • Lista de países
  • Para 7 días
  • Temperatura del agua
  • Mapa Satelital
  • El tiempo en el mapa
  • Informadores
  • user-avatar
    Iniciar sesión

    Tiempo cada hora Jarim

    Hoy, 25 Junio, Martes

    Tiempo Temperatura Precipitaciones Viento Presión Humedad
    00:00 +18°C° 0 mm 2 mps 553 mmHg 50%
    01:00 +18°C° 0 mm 2 mps 552 mmHg 49%
    02:00 +19°C° 0 mm 1 mps 552 mmHg 48%
    03:00 +18°C° 0 mm 1 mps 551 mmHg 48%
    04:00 +18°C° 0 mm 1 mps 552 mmHg 49%
    05:00 +18°C° 0 mm 1 mps 552 mmHg 49%
    06:00 +16°C° 0 mm 0 mps 552 mmHg 50%
    07:00 +19°C° 0 mm 1 mps 553 mmHg 43%
    08:00 +20°C° 0 mm 2 mps 554 mmHg 36%
    09:00 +22°C° 0 mm 4 mps 555 mmHg 29%
    10:00 +23°C° 0 mm 5 mps 556 mmHg 27%
    11:00 +24°C° 0 mm 6 mps 556 mmHg 25%
    12:00 +26°C° 0 mm 7 mps 557 mmHg 23%
    13:00 +26°C° 0 mm 6 mps 556 mmHg 24%
    14:00 +25°C° 0 mm 5 mps 556 mmHg 25%
    15:00 +25°C° 0 mm 4 mps 555 mmHg 27%
    16:00 +23°C° 0.1 mm 4 mps 555 mmHg 30%
    17:00 +23°C° 0.1 mm 4 mps 555 mmHg 33%
    18:00 +22°C° 0.1 mm 4 mps 555 mmHg 35%
    19:00 +21°C° 0.2 mm 4 mps 554 mmHg 41%
    20:00 +20°C° 0.2 mm 3 mps 554 mmHg 47%
    21:00 +19°C° 0.2 mm 2 mps 554 mmHg 53%
    22:00 +19°C° 0.1 mm 2 mps 554 mmHg 54%
    23:00 +20°C° 0.1 mm 1 mps 554 mmHg 55%

    Mañana, 26 Junio, Miércoles

    Tiempo Temperatura Precipitaciones Viento Presión Humedad
    00:00 +20°C° 0.1 mm 1 mps 554 mmHg 56%
    01:00 +19°C° 0.1 mm 1 mps 553 mmHg 55%
    02:00 +19°C° 0.1 mm 1 mps 553 mmHg 55%
    03:00 +17°C° 0.1 mm 0 mps 552 mmHg 54%
    04:00 +19°C° 0 mm 1 mps 552 mmHg 53%
    05:00 +19°C° 0 mm 1 mps 553 mmHg 52%
    06:00 +18°C° 0 mm 2 mps 553 mmHg 51%
    07:00 +19°C° 0 mm 3 mps 554 mmHg 45%
    08:00 +21°C° 0 mm 4 mps 555 mmHg 38%
    09:00 +22°C° 0 mm 5 mps 556 mmHg 32%
    10:00 +23°C° 0 mm 6 mps 556 mmHg 29%
    11:00 +24°C° 0 mm 6 mps 556 mmHg 27%
    12:00 +26°C° 0 mm 6 mps 556 mmHg 24%
    13:00 +26°C° 0 mm 6 mps 556 mmHg 24%
    14:00 +26°C° 0 mm 6 mps 556 mmHg 24%
    15:00 +26°C° 0 mm 6 mps 555 mmHg 24%
    16:00 +26°C° 0 mm 5 mps 555 mmHg 28%
    17:00 +25°C° 0 mm 5 mps 554 mmHg 31%
    18:00 +23°C° 0 mm 5 mps 554 mmHg 35%
    19:00 +22°C° 0 mm 4 mps 554 mmHg 38%
    20:00 +22°C° 0 mm 3 mps 554 mmHg 41%
    21:00 +21°C° 0 mm 2 mps 554 mmHg 44%
    22:00 +20°C° 0 mm 2 mps 553 mmHg 46%
    23:00 +20°C° 0 mm 2 mps 552 mmHg 48%

    Pasado mañana, 27 Junio, Jueves

    Tiempo Temperatura Precipitaciones Viento Presión Humedad
    00:00 +19°C° 0 mm 2 mps 552 mmHg 50%
    01:00 +19°C° 0 mm 2 mps 552 mmHg 50%
    02:00 +19°C° 0 mm 2 mps 551 mmHg 50%
    03:00 +18°C° 0 mm 2 mps 551 mmHg 49%
    04:00 +18°C° 0 mm 2 mps 551 mmHg 46%
    05:00 +18°C° 0 mm 2 mps 551 mmHg 43%
    06:00 +18°C° 0 mm 2 mps 551 mmHg 40%
    07:00 +20°C° 0 mm 4 mps 553 mmHg 34%
    08:00 +22°C° 0 mm 5 mps 554 mmHg 27%
    09:00 +24°C° 0 mm 7 mps 555 mmHg 20%
    10:00 +26°C° 0 mm 7 mps 555 mmHg 19%
    11:00 +28°C° 0 mm 7 mps 556 mmHg 17%
    12:00 +29°C° 0 mm 8 mps 556 mmHg 15%
    13:00 +28°C° 0 mm 7 mps 555 mmHg 16%
    14:00 +28°C° 0 mm 7 mps 555 mmHg 17%
    15:00 +28°C° 0 mm 6 mps 555 mmHg 18%
    16:00 +27°C° 0 mm 5 mps 554 mmHg 21%
    17:00 +27°C° 0 mm 5 mps 554 mmHg 23%
    18:00 +26°C° 0 mm 4 mps 554 mmHg 26%
    19:00 +25°C° 0 mm 3 mps 553 mmHg 30%
    20:00 +24°C° 0 mm 3 mps 553 mmHg 34%
    21:00 +23°C° 0 mm 2 mps 553 mmHg 38%
    22:00 +21°C° 0 mm 2 mps 552 mmHg 39%
    23:00 +22°C° 0 mm 1 mps 552 mmHg 39%

    28 Junio, Viernes

    Tiempo Temperatura Precipitaciones Viento Presión Humedad
    00:00 +21°C° 0 mm 1 mps 551 mmHg 40%
    01:00 +21°C° 0 mm 1 mps 551 mmHg 37%
    02:00 +20°C° 0 mm 1 mps 551 mmHg 34%
    03:00 +19°C° 0 mm 2 mps 550 mmHg 32%
    04:00 +19°C° 0 mm 2 mps 550 mmHg 32%
    05:00 +19°C° 0 mm 1 mps 550 mmHg 32%
    06:00 +19°C° 0 mm 1 mps 550 mmHg 32%
    07:00 +20°C° 0 mm 2 mps 552 mmHg 27%
    08:00 +22°C° 0 mm 3 mps 553 mmHg 21%
    09:00 +25°C° 0 mm 4 mps 554 mmHg 16%
    10:00 +26°C° 0 mm 5 mps 555 mmHg 16%
    11:00 +27°C° 0 mm 6 mps 555 mmHg 16%
    12:00 +28°C° 0 mm 7 mps 555 mmHg 15%
    13:00 +28°C° 0 mm 6 mps 555 mmHg 17%
    14:00 +28°C° 0 mm 6 mps 554 mmHg 18%
    15:00 +28°C° 0 mm 6 mps 554 mmHg 19%
    16:00 +27°C° 0 mm 5 mps 553 mmHg 23%
    17:00 +26°C° 0 mm 5 mps 553 mmHg 26%
    18:00 +25°C° 0 mm 5 mps 553 mmHg 30%
    19:00 +23°C° 0.1 mm 4 mps 553 mmHg 33%
    20:00 +22°C° 0.1 mm 3 mps 552 mmHg 37%
    21:00 +21°C° 0.1 mm 2 mps 552 mmHg 41%
    22:00 +21°C° 0 mm 2 mps 552 mmHg 41%
    23:00 +20°C° 0 mm 2 mps 552 mmHg 42%

    29 Junio, Sábado

    Tiempo Temperatura Precipitaciones Viento Presión Humedad
    00:00 +21°C° 0 mm 1 mps 551 mmHg 42%
    01:00 +20°C° 0 mm 1 mps 551 mmHg 43%
    02:00 +20°C° 0 mm 1 mps 551 mmHg 43%
    03:00 +19°C° 0 mm 1 mps 551 mmHg 44%
    04:00 +19°C° 0 mm 1 mps 551 mmHg 44%
    05:00 +19°C° 0 mm 1 mps 551 mmHg 45%
    06:00 +19°C° 0 mm 1 mps 551 mmHg 46%
    07:00 +20°C° 0 mm 2 mps 552 mmHg 39%
    08:00 +22°C° 0 mm 3 mps 554 mmHg 33%
    09:00 +25°C° 0 mm 5 mps 555 mmHg 26%
    10:00 +25°C° 0.1 mm 5 mps 555 mmHg 26%
    11:00 +26°C° 0.1 mm 5 mps 555 mmHg 25%
    12:00 +27°C° 0.1 mm 5 mps 555 mmHg 25%
    13:00 +26°C° 0.5 mm 6 mps 555 mmHg 28%
    14:00 +26°C° 0.5 mm 6 mps 554 mmHg 30%
    15:00 +24°C° 0.5 mm 6 mps 553 mmHg 33%
    16:00 +25°C° 0.5 mm 5 mps 553 mmHg 36%
    17:00 +23°C° 0.5 mm 5 mps 553 mmHg 38%
    18:00 +22°C° 0.5 mm 4 mps 552 mmHg 41%
    19:00 +21°C° 0 mm 3 mps 552 mmHg 45%
    20:00 +21°C° 0 mm 2 mps 552 mmHg 49%
    21:00 +21°C° 0 mm 1 mps 552 mmHg 54%
    22:00 +20°C° 0 mm 1 mps 552 mmHg 55%
    23:00 +20°C° 0 mm 1 mps 552 mmHg 56%

    30 Junio, Domingo

    Tiempo Temperatura Precipitaciones Viento Presión Humedad
    00:00 +20°C° 0 mm 1 mps 552 mmHg 58%
    01:00 +20°C° 0 mm 1 mps 551 mmHg 57%
    02:00 +19°C° 0 mm 1 mps 551 mmHg 56%
    03:00 +19°C° 0 mm 1 mps 551 mmHg 55%
    04:00 +17°C° 0 mm 0 mps 551 mmHg 56%
    05:00 +16°C° 0 mm 0 mps 551 mmHg 57%
    06:00 +16°C° 0 mm 0 mps 551 mmHg 58%
    07:00 +20°C° 0 mm 1 mps 552 mmHg 52%
    08:00 +21°C° 0 mm 1 mps 553 mmHg 46%
    09:00 +23°C° 0 mm 2 mps 554 mmHg 40%
    10:00 +22°C° 0 mm 3 mps 554 mmHg 37%
    11:00 +24°C° 0 mm 3 mps 554 mmHg 33%
    12:00 +25°C° 0 mm 4 mps 555 mmHg 30%
    13:00 +25°C° 0.4 mm 5 mps 554 mmHg 31%
    14:00 +25°C° 0.4 mm 5 mps 554 mmHg 33%
    15:00 +24°C° 0.4 mm 6 mps 554 mmHg 34%
    16:00 +23°C° 0.8 mm 5 mps 553 mmHg 38%
    17:00 +22°C° 0.8 mm 5 mps 553 mmHg 42%
    18:00 +21°C° 0.8 mm 4 mps 552 mmHg 46%
    19:00 +20°C° 0.2 mm 3 mps 552 mmHg 50%
    20:00 +20°C° 0.2 mm 2 mps 552 mmHg 54%
    21:00 +20°C° 0.2 mm 1 mps 552 mmHg 58%
    22:00 +20°C° 0 mm 1 mps 552 mmHg 58%
    23:00 +20°C° 0 mm 1 mps 552 mmHg 58%
    Mostrar más